FW6726 Weather Reports


Display with metric or nautical units.
time (UTC)temp
F
wind
direction
speed
MPH
gust
MPH
rain 1hr
in
rain 24hr
in
rain mn
in
humidity
%
barometer
mb
20260901134102 60 312 2.0 4.0 0.00 0.00 0.00 86 1016.5
20260901133602 60 312 2.0 3.0 0.00 0.00 0.00 86 1016.5
20260901133102 60 312 0.0 1.0 0.00 0.00 0.00 86 1016.5
20260901132603 60 312 0.0 1.0 0.00 0.00 0.00 86 1016.4
20260901132542 60 312 0.0 1.0 0.00 0.00 0.00 86 1016.4
20260901131602 60 312 0.0 3.0 0.00 0.00 0.00 86 1016.5
20260901131322 60 312 1.0 4.0 0.00 0.00 0.00 86 1016.4
20260901130601 60 312 2.0 5.0 0.00 0.00 0.00 86 1016.4
20260901130058 60 302 4.0 5.0 0.00 0.00 0.00 86 1016.4
20260901125558 60 299 4.0 6.0 0.00 0.00 0.00 87 1016.4
20260901125056 60 286 4.0 7.0 0.00 0.00 0.00 87 1016.5
20260901124548 60 303 5.0 7.0 0.00 0.00 0.00 87 1016.4
20260901124048 60 298 5.0 6.0 0.00 0.00 0.00 87 1016.5
20260901123548 60 292 4.0 6.0 0.00 0.00 0.00 87 1016.5
20260901123040 60 300 5.0 6.0 0.00 0.00 0.00 87 1016.4
20260901122541 60 279 5.0 5.0 0.00 0.00 0.00 86 1016.5
20260901122259 60 299 3.0 4.0 0.00 0.00 0.00 86 1016.4
20260901121539 61 320 3.0 3.0 0.00 0.00 0.00 86 1016.3
20260901121039 61 321 2.0 3.0 0.00 0.00 0.00 86 1016.2
20260901120539 61 321 1.0 2.0 0.00 0.00 0.00 86 1016.2
20260901120041 61 321 0.0 0.0 0.00 0.00 0.00 86 1016.2
20260901115539 61 321 0.0 0.0 0.00 0.00 0.00 86 1016.2
20260901115039 61 321 0.0 0.0 0.00 0.00 0.00 86 1016.2
20260901114538 61 321 0.0 0.0 0.00 0.00 0.00 85 1016.2
20260901114038 61 321 0.0 0.0 0.00 0.00 0.00 85 1016.2
20260901113538 61 321 0.0 0.0 0.00 0.00 0.00 85 1016.3
20260901113258 61 321 0.0 0.0 0.00 0.00 0.00 85 1016.3
20260901112805 61 321 0.0 0.0 0.00 0.00 0.00 84 1016.4
20260901112310 61 321 0.0 0.0 0.00 0.00 0.00 84 1016.4
20260901111537 61 321 0.0 0.0 0.00 0.00 0.00 84 1016.2
20260901111037 61 321 0.0 0.0 0.00 0.00 0.00 85 1016.2
20260901110537 61 321 0.0 0.0 0.00 0.00 0.00 85 1016.1
20260901110037 62 321 0.0 0.0 0.00 0.00 0.00 85 1016.1
20260901105803 61 321 0.0 0.0 0.00 0.00 0.00 85 1016.2
20260901105306 61 321 0.0 3.0 0.00 0.00 0.00 85 1016.2
20260901104532 61 321 1.0 4.0 0.00 0.00 0.00 85 1016.1
20260901104033 61 321 2.0 4.0 0.00 0.00 0.00 85 1016.2
20260901103754 61 321 3.0 4.0 0.00 0.00 0.00 85 1016.2
20260901103032 61 321 2.0 4.0 0.00 0.00 0.00 85 1016.2
20260901102532 61 306 3.0 5.0 0.00 0.00 0.00 85 1016.3
20260901102032 61 286 4.0 5.0 0.00 0.00 0.00 85 1016.3
20260901101528 61 283 3.0 5.0 0.00 0.00 0.00 85 1016.2
20260901101024 61 295 4.0 5.0 0.00 0.00 0.00 85 1016.2
20260901100523 61 293 4.0 5.0 0.00 0.00 0.00 85 1016.3
20260901100022 61 293 4.0 6.0 0.00 0.00 0.00 85 1016.3
20260901095513 61 285 4.0 6.0 0.00 0.00 0.00 84 1016.3
20260901095003 61 289 4.0 5.0 0.00 0.00 0.00 84 1016.4
20260901094502 61 276 3.0 5.0 0.00 0.00 0.00 84 1016.4
20260901094003 61 276 4.0 5.0 0.00 0.00 0.00 84 1016.4
20260901093503 61 279 4.0 5.0 0.00 0.00 0.00 84 1016.4
20260901093003 61 278 4.0 5.0 0.00 0.00 0.00 84 1016.4
20260901092503 61 278 4.0 5.0 0.00 0.00 0.00 83 1016.3
20260901092003 61 279 4.0 5.0 0.00 0.00 0.00 83 1016.2
20260901091504 61 279 3.0 4.0 0.00 0.00 0.00 83 1016.2
20260901091004 61 286 2.0 3.0 0.00 0.00 0.00 83 1016.3
20260901090503 62 286 2.0 4.0 0.00 0.00 0.00 83 1016.3
20260901090003 62 286 3.0 4.0 0.00 0.00 0.00 83 1016.3
20260901085503 62 286 2.0 4.0 0.00 0.00 0.00 83 1016.2
20260901085227 62 62 2.0 3.0 0.00 0.00 0.00 83 1016.2
20260901084725 62 62 2.0 2.0 0.00 0.00 0.00 83 1016.2
20260901084003 62 62 1.0 3.0 0.00 0.00 0.00 83 1016.2
20260901083504 62 62 2.0 3.0 0.00 0.00 0.00 83 1016.2
20260901083003 62 63 1.0 3.0 0.00 0.00 0.00 83 1016.2
20260901082458 62 63 2.0 3.0 0.00 0.00 0.00 83 1016.3
20260901081953 62 65 2.0 3.0 0.00 0.00 0.00 83 1016.4
20260901081455 62 66 0.0 0.0 0.00 0.00 0.00 83 1016.4
20260901080955 62 66 0.0 0.0 0.00 0.00 0.00 83 1016.4
20260901080454 62 66 0.0 0.0 0.00 0.00 0.00 82 1016.4
20260901075952 62 66 0.0 0.0 0.00 0.00 0.00 82 1016.4
20260901075450 63 66 0.0 0.0 0.00 0.00 0.00 82 1016.3
20260901074949 63 66 0.0 1.0 0.00 0.00 0.00 82 1016.2
20260901074434 63 66 0.0 1.0 0.00 0.00 0.00 82 1016.2
20260901073932 63 66 0.0 1.0 0.00 0.00 0.00 82 1016.1
20260901073434 63 66 0.0 3.0 0.00 0.00 0.00 82 1016.1
20260901072932 63 66 1.0 3.0 0.00 0.00 0.00 82 1016.1
20260901072432 63 66 0.0 0.0 0.00 0.00 0.00 81 1016.1
20260901071931 63 66 0.0 2.0 0.00 0.00 0.00 81 1016.2
20260901071432 63 66 0.0 4.0 0.00 0.00 0.00 81 1016.2
20260901070931 63 66 2.0 4.0 0.00 0.00 0.00 81 1016.2
20260901070430 63 66 2.0 3.0 0.00 0.00 0.00 81 1016.2
20260901065930 64 66 2.0 4.0 0.00 0.00 0.00 81 1016.2
20260901065655 64 66 2.0 4.0 0.00 0.00 0.00 80 1016.3
20260901064930 64 66 3.0 4.0 0.00 0.00 0.00 80 1016.2
20260901064431 64 68 2.0 3.0 0.00 0.00 0.00 79 1016.2
20260901063930 64 68 0.0 0.0 0.00 0.00 0.00 79 1016.2
20260901063430 64 68 0.0 0.0 0.00 0.00 0.00 77 1016.1
20260901062930 64 68 0.0 0.0 0.00 0.00 0.00 77 1016.2
20260901062430 64 68 0.0 1.0 0.00 0.00 0.00 77 1016.2
20260901061930 64 68 0.0 2.0 0.00 0.00 0.00 77 1016.1
20260901061429 64 68 1.0 2.0 0.00 0.00 0.00 76 1016.1
20260901061158 64 68 1.0 2.0 0.00 0.00 0.00 76 1016.1
20260901060429 65 44 1.0 2.0 0.00 0.00 0.00 76 1015.9
20260901055929 65 23 1.0 2.0 0.00 0.00 0.00 76 1015.9
20260901055426 65 16 0.0 3.0 0.00 0.00 0.00 76 1015.8
20260901055149 65 16 2.0 3.0 0.00 0.00 0.00 76 1015.7
20260901054416 65 16 2.0 3.0 0.00 0.00 0.00 76 1015.7
20260901054126 65 16 2.0 2.0 0.00 0.00 0.00 76 1015.7
20260901053404 65 16 1.0 2.0 0.00 0.00 0.00 76 1015.7
20260901053351 65 16 2.0 3.0 0.00 0.00 0.00 76 1015.7
20260901052402 65 16 2.0 3.0 0.00 0.00 0.00 76 1015.7
20260901052126 65 16 1.0 2.0 0.00 0.00 0.00 76 1015.8
20260901051403 65 16 0.0 0.0 0.00 0.00 0.00 76 1015.8
20260901050902 65 16 0.0 2.0 0.00 0.00 0.00 75 1015.8
20260901050355 65 16 0.0 2.0 0.00 0.00 0.00 75 1015.8
20260901045855 65 17 1.0 2.0 0.00 0.00 0.00 75 1015.9
20260901045355 66 0 0.0 1.0 0.00 0.00 0.00 76 1015.8
20260901044835 66 0 0.0 2.0 0.00 0.00 0.00 76 1015.6
20260901044604 65 0 1.0 2.0 0.00 0.00 0.00 76 1015.5
20260901043835 65 0 1.0 2.0 0.00 0.00 0.00 76 1015.5
20260901043551 65 0 1.0 3.0 0.00 0.00 0.00 76 1015.5
20260901042835 65 0 0.0 3.0 0.00 0.00 0.00 76 1015.5
20260901042334 65 0 1.0 4.0 0.00 0.00 0.00 76 1015.5
20260901041834 65 0 1.0 4.0 0.00 0.00 0.00 76 1015.5
20260901041333 65 0 2.0 4.0 0.00 0.00 0.00 76 1015.6
20260901040834 65 0 2.0 3.0 0.00 0.00 0.00 76 1015.7
20260901040333 65 0 2.0 3.0 0.00 0.00 0.00 76 1015.7
20260901035833 65 0 1.0 3.0 0.00 0.00 0.00 76 1015.7
20260901035332 65 0 1.0 2.0 0.00 0.00 0.00 76 1015.8
20260901034834 65 0 1.0 2.0 0.00 0.00 0.00 76 1015.7
20260901034333 65 0 1.0 4.0 0.00 0.00 0.00 76 1015.6
20260901034250 65 314 1.0 4.0 0.00 0.00 0.00 76 1015.6
20260901034242 65 314 3.0 5.0 0.00 0.00 0.00 75 1015.5
20260901032827 65 312 4.0 5.0 0.00 0.00 0.00 75 1015.5
20260901032325 65 310 3.0 5.0 0.00 0.00 0.00 75 1015.5
20260901031827 66 327 3.0 4.0 0.00 0.00 0.00 73 1015.4
20260901031326 66 58 0.0 1.0 0.00 0.00 0.00 73 1015.5
20260901031048 66 58 0.0 1.0 0.00 0.00 0.00 73 1015.4
20260901030324 67 58 0.0 1.0 0.00 0.00 0.00 72 1015.4
20260901030043 67 58 0.0 1.0 0.00 0.00 0.00 72 1015.2
20260901025547 67 58 0.0 3.0 0.00 0.00 0.00 72 1015.3
20260901025049 67 58 1.0 5.0 0.00 0.00 0.00 72 1015.2
20260901024324 67 58 3.0 5.0 0.00 0.00 0.00 71 1015.2
20260901024044 68 83 1.0 2.0 0.00 0.00 0.00 70 1015.2
20260901023325 68 83 0.0 0.0 0.00 0.00 0.00 70 1015.2
20260901022824 68 83 0.0 0.0 0.00 0.00 0.00 70 1015.1
20260901022324 68 83 0.0 2.0 0.00 0.00 0.00 70 1015.2
20260901022047 68 83 0.0 2.0 0.00 0.00 0.00 70 1015.3
20260901021324 69 83 1.0 3.0 0.00 0.00 0.00 69 1015.2
20260901020824 69 83 2.0 3.0 0.00 0.00 0.00 68 1015.3
20260901020546 69 83 2.0 4.0 0.00 0.00 0.00 68 1015.3
20260901015824 69 83 2.0 4.0 0.00 0.00 0.00 68 1015.3
20260901015323 70 83 2.0 4.0 0.00 0.00 0.00 68 1015.3
20260901014823 70 85 2.0 5.0 0.00 0.00 0.00 67 1015.4
20260901014323 70 85 4.0 5.0 0.00 0.00 0.00 67 1015.4
20260901014045 71 80 3.0 5.0 0.00 0.00 0.00 67 1015.4
20260901013323 71 87 2.0 5.0 0.00 0.00 0.00 67 1015.4
20260901012822 71 87 4.0 5.0 0.00 0.00 0.00 66 1015.5
20260901012323 71 86 3.0 6.0 0.00 0.00 0.00 66 1015.4
20260901011823 71 86 3.0 6.0 0.00 0.00 0.00 64 1015.3
20260901011324 72 87 4.0 5.0 0.00 0.00 0.00 65 1015.3
20260901010824 72 86 4.0 6.0 0.00 0.00 0.00 64 1015.2
20260901010323 73 79 4.0 6.0 0.00 0.00 0.00 64 1015.3
20260901005823 74 83 4.0 5.0 0.00 0.00 0.00 63 1015.3
20260901005323 74 75 4.0 5.0 0.00 0.00 0.00 62 1015.2
20260901004822 74 79 4.0 5.0 0.00 0.00 0.00 62 1015.3
20260901004322 75 96 4.0 5.0 0.00 0.00 0.00 62 1015.3
20260901004043 74 90 3.0 9.0 0.00 0.00 0.00 63 1015.2
20260901003539 74 93 4.0 9.0 0.00 0.00 0.00 62 1015.2
20260901002821 75 76 4.0 6.0 0.00 0.00 0.00 61 1015.2
20260901002322 75 76 4.0 7.0 0.00 0.00 0.00 61 1015.3
20260901001821 76 87 4.0 7.0 0.00 0.00 0.00 60 1015.4
20260901001545 77 80 4.0 7.0 0.00 0.00 0.00 60 1015.4
20260901000821 77 82 2.0 7.0 0.00 0.00 0.00 59 1015.5
20260901000321 77 86 4.0 7.0 0.00 0.00 0.00 59 1015.6
20260831235822 77 89 4.0 6.0 0.00 0.00 0.00 59 1015.6
20260831235322 77 138 3.0 6.0 0.00 0.00 0.00 59 1015.7
20260831234822 77 127 3.0 6.0 0.00 0.00 0.00 61 1015.7
20260831234322 77 124 2.0 4.0 0.00 0.00 0.00 61 1015.7
20260831233821 77 117 2.0 4.0 0.00 0.00 0.00 61 1015.7
20260831233321 77 114 2.0 7.0 0.00 0.00 0.00 61 1015.8
20260831232821 78 99 4.0 7.0 0.00 0.00 0.00 61 1015.7
20260831232321 78 114 3.0 7.0 0.00 0.00 0.00 60 1015.6
20260831231821 78 109 4.0 7.0 0.00 0.00 0.00 60 1015.6
20260831231319 79 116 4.0 7.0 0.00 0.00 0.00 59 1015.6
20260831230820 78 109 3.0 7.0 0.00 0.00 0.00 59 1015.7
20260831230319 78 96 4.0 7.0 0.00 0.00 0.00 59 1015.6
20260831230035 78 86 2.0 9.0 0.00 0.00 0.00 59 1015.7
20260831225319 78 106 4.0 9.0 0.00 0.00 0.00 59 1015.7
20260831224819 79 92 4.0 7.0 0.00 0.00 0.00 58 1015.8
20260831224319 79 96 4.0 7.0 0.00 0.00 0.00 58 1015.9
20260831223819 79 130 3.0 7.0 0.00 0.00 0.00 59 1016.0
20260831223319 79 96 4.0 7.0 0.00 0.00 0.00 59 1016.0
20260831223042 79 93 4.0 7.0 0.00 0.00 0.00 59 1016.1
20260831222318 79 109 3.0 6.0 0.00 0.00 0.00 59 1016.1
20260831221819 79 120 2.0 7.0 0.00 0.00 0.00 59 1016.1
20260831221319 79 96 3.0 7.0 0.00 0.00 0.00 59 1016.1
20260831220818 79 92 4.0 7.0 0.00 0.00 0.00 59 1016.2
20260831220318 80 124 3.0 7.0 0.00 0.00 0.00 59 1016.3
20260831215818 79 102 3.0 7.0 0.00 0.00 0.00 59 1016.3
20260831215318 79 90 4.0 10.0 0.00 0.00 0.00 59 1016.2
20260831214817 80 103 5.0 10.0 0.00 0.00 0.00 59 1016.3
20260831214804 79 96 3.0 9.0 0.00 0.00 0.00 60 1016.3
20260831213818 79 73 4.0 9.0 0.00 0.00 0.00 60 1016.3
20260831213318 79 97 5.0 10.0 0.00 0.00 0.00 60 1016.4
20260831212817 79 104 4.0 10.0 0.00 0.00 0.00 60 1016.5
20260831212317 80 93 4.0 9.0 0.00 0.00 0.00 60 1016.6
20260831212307 80 144 3.0 6.0 0.00 0.00 0.00 61 1016.6
20260831211318 79 109 4.0 6.0 0.00 0.00 0.00 62 1016.8
20260831210817 79 151 3.0 9.0 0.00 0.00 0.00 60 1016.8
20260831210316 80 135 4.0 10.0 0.00 0.00 0.00 60 1016.8
20260831205817 80 138 4.0 10.0 0.00 0.00 0.00 60 1016.7
20260831205536 80 113 4.0 7.0 0.00 0.00 0.00 60 1016.7
20260831204816 80 137 4.0 10.0 0.00 0.00 0.00 61 1016.7
20260831204539 79 97 5.0 12.0 0.00 0.00 0.00 62 1016.6
20260831204301 79 113 5.0 12.0 0.00 0.00 0.00 61 1016.6
20260831203317 80 111 6.0 11.0 0.00 0.00 0.00 61 1016.5
20260831202816 80 124 3.0 9.0 0.00 0.00 0.00 61 1016.6
20260831202316 80 44 5.0 7.0 0.00 0.00 0.00 60 1016.7
20260831201816 80 100 4.0 7.0 0.00 0.00 0.00 60 1016.7
20260831201316 81 104 3.0 6.0 0.00 0.00 0.00 60 1016.8
20260831200817 81 140 4.0 6.0 0.00 0.00 0.00 60 1016.8
20260831200316 80 102 3.0 7.0 0.00 0.00 0.00 61 1016.7
20260831195818 80 114 2.0 9.0 0.00 0.00 0.00 60 1016.7
20260831195316 80 89 3.0 9.0 0.00 0.00 0.00 60 1016.8
20260831194817 81 107 4.0 9.0 0.00 0.00 0.00 57 1016.8
20260831194316 81 93 4.0 9.0 0.00 0.00 0.00 56 1016.8
20260831193814 81 100 3.0 7.0 0.00 0.00 0.00 56 1016.8
20260831193315 82 107 4.0 6.0 0.00 0.00 0.00 57 1016.8
20260831192815 82 125 3.0 6.0 0.00 0.00 0.00 57 1016.9
20260831192314 82 107 3.0 6.0 0.00 0.00 0.00 57 1016.9
20260831191814 82 114 3.0 6.0 0.00 0.00 0.00 58 1017.0
20260831191314 81 99 2.0 10.0 0.00 0.00 0.00 59 1017.1
20260831190814 81 79 5.0 10.0 0.00 0.00 0.00 59 1017.1
20260831190314 81 131 3.0 7.0 0.00 0.00 0.00 59 1017.2
20260831185813 80 110 2.0 7.0 0.00 0.00 0.00 61 1017.1
20260831185754 79 118 2.0 11.0 0.00 0.00 0.00 62 1017.1
20260831184815 79 118 5.0 11.0 0.00 0.00 0.00 63 1017.0
20260831184316 78 85 5.0 12.0 0.00 0.00 0.00 66 1017.1
20260831183815 77 93 6.0 13.0 0.00 0.00 0.00 66 1017.1
20260831183544 76 97 8.0 13.0 0.00 0.00 0.00 70 1017.1
20260831182814 75 89 9.0 13.0 0.00 0.00 0.00 70 1017.0
20260831182315 75 94 9.0 13.0 0.00 0.00 0.00 69 1017.1
20260831182039 75 85 9.0 12.0 0.00 0.00 0.00 70 1017.0
20260831181314 75 87 8.0 13.0 0.00 0.00 0.00 71 1017.1
20260831180813 75 87 6.0 13.0 0.00 0.00 0.00 72 1017.1
20260831180313 75 83 8.0 13.0 0.00 0.00 0.00 71 1017.1
20260831175812 74 78 8.0 12.0 0.00 0.00 0.00 72 1017.0
20260831175533 75 89 9.0 12.0 0.00 0.00 0.00 72 1017.0
20260831174812 75 106 10.0 13.0 0.00 0.00 0.00 71 1017.0
20260831174312 75 93 7.0 13.0 0.00 0.00 0.00 72 1017.1
20260831173812 74 94 9.0 13.0 0.00 0.00 0.00 72 1017.0
20260831173312 74 83 9.0 13.0 0.00 0.00 0.00 73 1016.9
20260831172812 74 82 9.0 15.0 0.00 0.00 0.00 73 1017.0
20260831172312 74 92 10.0 15.0 0.00 0.00 0.00 73 1016.8
20260831171813 74 89 10.0 14.0 0.00 0.00 0.00 73 1016.7
20260831171313 75 72 10.0 14.0 0.00 0.00 0.00 72 1016.7
20260831170813 75 61 11.0 14.0 0.00 0.00 0.00 71 1016.5
20260831170312 76 75 9.0 14.0 0.00 0.00 0.00 69 1016.5
20260831165813 76 87 9.0 14.0 0.00 0.00 0.00 68 1016.4
20260831165313 75 86 9.0 14.0 0.00 0.00 0.00 68 1016.3
20260831164813 75 66 9.0 14.0 0.00 0.00 0.00 66 1016.3
20260831164313 75 86 10.0 14.0 0.00 0.00 0.00 66 1016.2
20260831164034 75 62 7.0 10.0 0.00 0.00 0.00 65 1016.1
20260831163312 74 82 5.0 9.0 0.00 0.00 0.00 66 1016.2
20260831162813 74 72 7.0 9.0 0.00 0.00 0.00 67 1016.2
20260831162312 74 63 4.0 9.0 0.00 0.00 0.00 70 1016.1
20260831161813 73 100 2.0 5.0 0.00 0.00 0.00 73 1016.2
20260831161538 72 103 2.0 7.0 0.00 0.00 0.00 74 1016.2
20260831160813 72 104 3.0 7.0 0.00 0.00 0.00 75 1016.2
20260831160311 71 102 4.0 5.0 0.00 0.00 0.00 76 1016.1
20260831155814 71 102 3.0 7.0 0.00 0.00 0.00 77 1016.0
20260831155310 70 102 3.0 7.0 0.00 0.00 0.00 78 1015.9
20260831154811 69 90 2.0 9.0 0.00 0.00 0.00 78 1015.9
20260831154309 69 72 6.0 9.0 0.00 0.00 0.00 78 1015.8
20260831153810 68 80 6.0 7.0 0.00 0.00 0.00 80 1015.8
20260831153309 68 82 5.0 6.0 0.00 0.00 0.00 81 1015.8
20260831152810 67 73 4.0 6.0 0.00 0.00 0.00 82 1015.9
20260831152309 67 85 4.0 5.0 0.00 0.00 0.00 83 1015.9
20260831151810 66 78 3.0 5.0 0.00 0.00 0.00 84 1016.0
20260831151309 66 82 3.0 5.0 0.00 0.00 0.00 86 1016.0
20260831150810 65 111 2.0 4.0 0.00 0.00 0.00 86 1016.1
20260831150308 65 173 0.0 2.0 0.00 0.00 0.00 86 1016.0
20260831145809 64 173 0.0 2.0 0.00 0.00 0.00 86 1015.9
20260831145308 64 175 0.0 2.0 0.00 0.00 0.00 86 1015.9
20260831145032 64 175 1.0 3.0 0.00 0.00 0.00 86 1015.8
20260831144308 64 175 2.0 3.0 0.00 0.00 0.00 86 1015.7
20260831143809 64 173 2.0 4.0 0.00 0.00 0.00 86 1015.6
20260831143308 64 173 2.0 4.0 0.00 0.00 0.00 85 1015.5
20260831143255 64 59 0.0 2.0 0.00 0.00 0.00 84 1015.5
20260831142308 63 59 1.0 2.0 0.00 0.00 0.00 84 1015.3
20260831141810 64 59 1.0 2.0 0.00 0.00 0.00 84 1015.2
20260831141308 63 59 0.0 1.0 0.00 0.00 0.00 83 1015.1
20260831140809 63 59 0.0 1.0 0.00 0.00 0.00 82 1015.1
20260831140525 63 59 0.0 2.0 0.00 0.00 0.00 82 1014.9
20260831135810 63 59 1.0 3.0 0.00 0.00 0.00 82 1014.8
20260831135308 63 59 2.0 3.0 0.00 0.00 0.00 82 1014.7
20260831134809 63 59 2.0 3.0 0.00 0.00 0.00 82 1014.6
20260831134524 63 47 3.0 3.0 0.00 0.00 0.00 83 1014.5